Starlink 31306

operational
NORAD ID: 58876 Int'l Des: 2024-020 Owner: SPXS Country: US Constellation: starlink
LEOCIRCULAR

Starlink 31306について

説明を読み込み中...

リアルタイム位置

3D地球を読み込み中...

次回通過

高度履歴

Altitude vs Time

uPlot chart will show altitude changes over time

軌道要素

1 58876U 24020A 26036.22263389 .00003074 00000-0 11591-3 0 9998
2 58876 53.1602 112.9849 0001323 74.7629 285.3518 15.30192260114288
Epoch: Feb 5, 2026 • Age: 40 hours

現在のステータス

高度 480.6 km
速度 7.63 km/s
衛星直下点 -17.95°S, 159.02°W
打ち上げ日 Jan 29, 2024
運用期間 2 years
タイプ internet

技術仕様

分類 Payload
質量 730.00 kg
乾燥質量 700.00 kg
総質量 730.00 kg
長さ 0.30 m
直径 4.10 m
スパン 29.00 m
形状 Box + pan
製造者 SPXS
バスタイプ Starlink V2M
フェーズステータス In Orbit
所有者/国 SPXS/US

大規模コンステレーション

Loading constellations...